This is the latest recevied weather packets stored in our database for station/object DM8MH-13. If no packets are shown the sender has not sent any weather packets the latest 10 day(s).
| Time | Temp. | Humidity | Pressure | Rain* | Wind** | Luminosity | Snow |
|---|---|---|---|---|---|---|---|
| 1777726873 | 26.67° C | 30% | 1018.3 hPa | 0 mm | - | 725 W/m² | - |
| 1777726272 | 26.67° C | 30% | 1018.5 hPa | 0 mm | - | 731 W/m² | - |
| 1777725673 | 26.11° C | 31% | 1018.6 hPa | 0 mm | - | 744 W/m² | - |
| 1777725073 | 26.11° C | 31% | 1018.9 hPa | 0 mm | - | 755 W/m² | - |
| 1777724473 | 26.11° C | 31% | 1019 hPa | 0 mm | - | 765 W/m² | - |
| 1777723873 | 26.11° C | 33% | 1019.2 hPa | 0 mm | - | 772 W/m² | - |
| 1777723273 | 25.56° C | 33% | 1019.3 hPa | 0 mm | - | 776 W/m² | - |
| 1777722673 | 25.56° C | 34% | 1019.4 hPa | 0 mm | - | 779 W/m² | - |
| 1777722073 | 25.56° C | 37% | 1019.7 hPa | 0 mm | - | 774 W/m² | - |
| 1777721473 | 25.56° C | 37% | 1019.9 hPa | 0 mm | - | 734 W/m² | - |
| 1777720872 | 25° C | 37% | 1019.9 hPa | 0 mm | - | 670 W/m² | - |
| 1777720273 | 25° C | 37% | 1020.3 hPa | 0 mm | - | 618 W/m² | - |
| 1777719673 | 25° C | 38% | 1020.3 hPa | 0 mm | - | 660 W/m² | - |
| 1777719073 | 24.44° C | 40% | 1020.5 hPa | 0 mm | - | 732 W/m² | - |
| 1777718473 | 23.89° C | 40% | 1020.5 hPa | 0 mm | - | 780 W/m² | - |
| 1777717874 | 23.89° C | 40% | 1020.8 hPa | 0 mm | - | 769 W/m² | - |
| 1777717272 | 23.89° C | 42% | 1020.8 hPa | 0 mm | - | 770 W/m² | - |
| 1777716673 | 22.78° C | 42% | 1021 hPa | 0 mm | - | 761 W/m² | - |
| 1777716073 | 22.78° C | 42% | 1021.2 hPa | 0 mm | - | 753 W/m² | - |
| 1777715473 | 22.22° C | 43% | 1021.1 hPa | 0 mm | - | 745 W/m² | - |
| 1777714873 | 22.22° C | 41% | 1021.2 hPa | 0 mm | - | 732 W/m² | - |
| 1777714273 | 22.22° C | 42% | 1021.5 hPa | 0 mm | - | 720 W/m² | - |
| 1777713673 | 22.22° C | 46% | 1021.6 hPa | 0 mm | - | 707 W/m² | - |
| 1777713073 | 22.22° C | 47% | 1021.5 hPa | 0 mm | - | 690 W/m² | - |
| 1777712473 | 21.67° C | 48% | 1021.5 hPa | 0 mm | - | 677 W/m² | - |
* Rain latest hour (hover to see other rain measurements)
** Current wind speed in m/s (hover to see current wind gust speed)